| time (UTC) | temp F | wind direction | speed MPH | gust MPH | rain 1hr in | rain 24hr in | rain mn in | humidity % | barometer mb |
| 20260506044034 | 61 | 0 | 1.0 | 8.0 | 0.00 | 0.25 | 0.23 | 49 | 1014.5 |
| 20260506043533 | 61 | 360 | 1.0 | 8.0 | 0.00 | 0.25 | 0.23 | 48 | 1014.6 |
| 20260506043049 | 61 | 360 | 1.0 | 5.0 | 0.00 | 0.25 | 0.23 | 48 | 1014.5 |
| 20260506042534 | 61 | 0 | 1.0 | 5.0 | 0.00 | 0.25 | 0.23 | 48 | 1014.4 |
| 20260506042031 | 62 | 360 | 1.0 | 8.0 | 0.00 | 0.25 | 0.23 | 47 | 1014.4 |
| 20260506041540 | 62 | 0 | 3.0 | 8.0 | 0.00 | 0.25 | 0.23 | 47 | 1014.3 |
| 20260506041032 | 62 | 360 | 3.0 | 8.0 | 0.00 | 0.25 | 0.23 | 47 | 1014.2 |
| 20260506040532 | 62 | 360 | 0.0 | 10.0 | 0.00 | 0.25 | 0.23 | 46 | 1014.2 |
| 20260506040050 | 62 | 0 | 3.0 | 10.0 | 0.00 | 0.25 | 0.23 | 45 | 1014.1 |
| 20260506035534 | 63 | 360 | 5.0 | 10.0 | 0.00 | 0.25 | 0.23 | 45 | 1014.0 |
| 20260506035034 | 63 | 240 | 3.0 | 7.0 | 0.00 | 0.25 | 0.23 | 45 | 1014.0 |
| 20260506034541 | 63 | 226 | 2.0 | 12.0 | 0.00 | 0.25 | 0.23 | 44 | 1013.9 |
| 20260506034031 | 63 | 0 | 3.0 | 12.0 | 0.00 | 0.25 | 0.23 | 44 | 1013.9 |
| 20260506033533 | 64 | 360 | 4.0 | 12.0 | 0.00 | 0.25 | 0.23 | 43 | 1013.9 |
| 20260506033039 | 64 | 236 | 4.0 | 11.0 | 0.00 | 0.25 | 0.23 | 42 | 1013.8 |
| 20260506032532 | 64 | 236 | 5.0 | 11.0 | 0.00 | 0.25 | 0.23 | 42 | 1013.6 |
| 20260506032034 | 64 | 242 | 5.0 | 9.0 | 0.00 | 0.25 | 0.23 | 42 | 1013.6 |
| 20260506031542 | 64 | 360 | 4.0 | 9.0 | 0.00 | 0.25 | 0.23 | 41 | 1013.5 |
| 20260506031033 | 64 | 0 | 3.0 | 13.0 | 0.00 | 0.25 | 0.23 | 41 | 1013.5 |
| 20260506030532 | 65 | 242 | 4.0 | 13.0 | 0.00 | 0.25 | 0.23 | 40 | 1013.3 |
| 20260506030040 | 65 | 250 | 5.0 | 11.0 | 0.00 | 0.25 | 0.23 | 40 | 1013.2 |
| 20260506025532 | 65 | 250 | 4.0 | 11.0 | 0.00 | 0.25 | 0.23 | 40 | 1013.2 |
| 20260506025031 | 65 | 269 | 3.0 | 9.0 | 0.00 | 0.25 | 0.23 | 40 | 1013.1 |
| 20260506024548 | 65 | 254 | 4.0 | 12.0 | 0.00 | 0.25 | 0.23 | 40 | 1013.1 |
| 20260506024032 | 65 | 250 | 6.0 | 12.0 | 0.00 | 0.25 | 0.23 | 39 | 1013.1 |
| 20260506023534 | 66 | 262 | 7.0 | 12.0 | 0.00 | 0.25 | 0.23 | 38 | 1013.0 |
| 20260506023045 | 66 | 242 | 4.0 | 12.0 | 0.00 | 0.25 | 0.23 | 38 | 1012.8 |
| 20260506022535 | 66 | 260 | 4.0 | 12.0 | 0.00 | 0.25 | 0.23 | 38 | 1012.7 |
| 20260506022031 | 66 | 258 | 5.0 | 12.0 | 0.00 | 0.25 | 0.23 | 38 | 1012.6 |
| 20260506021544 | 66 | 249 | 6.0 | 13.0 | 0.00 | 0.25 | 0.23 | 37 | 1012.5 |
| 20260506021031 | 67 | 264 | 5.0 | 16.0 | 0.00 | 0.25 | 0.23 | 37 | 1012.3 |
| 20260506020530 | 67 | 263 | 8.0 | 16.0 | 0.00 | 0.25 | 0.23 | 36 | 1012.1 |
| 20260506020040 | 67 | 260 | 7.0 | 15.0 | 0.00 | 0.25 | 0.23 | 36 | 1012.1 |
| 20260506015531 | 68 | 281 | 8.0 | 15.0 | 0.00 | 0.25 | 0.23 | 36 | 1012.0 |
| 20260506015032 | 68 | 239 | 7.0 | 16.0 | 0.00 | 0.25 | 0.23 | 35 | 1012.0 |
| 20260506014557 | 68 | 271 | 8.0 | 16.0 | 0.00 | 0.25 | 0.23 | 35 | 1011.9 |
| 20260506014033 | 69 | 236 | 5.0 | 16.0 | 0.00 | 0.25 | 0.23 | 35 | 1011.8 |
| 20260506013531 | 69 | 232 | 8.0 | 16.0 | 0.00 | 0.25 | 0.23 | 35 | 1011.8 |
| 20260506013039 | 69 | 233 | 7.0 | 14.0 | 0.00 | 0.25 | 0.23 | 34 | 1011.8 |
| 20260506012534 | 70 | 195 | 7.0 | 15.0 | 0.00 | 0.25 | 0.23 | 34 | 1011.7 |
| 20260506012031 | 70 | 242 | 4.0 | 16.0 | 0.00 | 0.25 | 0.23 | 34 | 1011.7 |
| 20260506011601 | 70 | 257 | 8.0 | 17.0 | 0.00 | 0.25 | 0.23 | 32 | 1011.7 |
| 20260506011033 | 70 | 205 | 6.0 | 17.0 | 0.00 | 0.25 | 0.23 | 33 | 1011.7 |
| 20260506010534 | 70 | 225 | 9.0 | 17.0 | 0.00 | 0.25 | 0.23 | 33 | 1011.7 |
| 20260506010035 | 70 | 248 | 9.0 | 17.0 | 0.00 | 0.25 | 0.23 | 31 | 1011.5 |
| 20260506005531 | 70 | 224 | 7.0 | 18.0 | 0.00 | 0.25 | 0.23 | 31 | 1011.5 |
| 20260506005033 | 70 | 203 | 9.0 | 18.0 | 0.00 | 0.25 | 0.23 | 31 | 1011.5 |
| 20260506004558 | 70 | 226 | 5.0 | 17.0 | 0.00 | 0.25 | 0.23 | 31 | 1011.4 |
| 20260506004033 | 70 | 233 | 10.0 | 20.0 | 0.00 | 0.25 | 0.23 | 30 | 1011.4 |
| 20260506003533 | 70 | 223 | 11.0 | 21.0 | 0.00 | 0.25 | 0.23 | 29 | 1011.4 |
| 20260506003039 | 70 | 254 | 8.0 | 21.0 | 0.00 | 0.25 | 0.23 | 29 | 1011.3 |
| 20260506002532 | 70 | 215 | 8.0 | 24.0 | 0.00 | 0.25 | 0.23 | 29 | 1011.3 |
| 20260506002034 | 70 | 216 | 10.0 | 24.0 | 0.00 | 0.25 | 0.23 | 27 | 1011.3 |
| 20260506001543 | 71 | 204 | 10.0 | 24.0 | 0.00 | 0.25 | 0.23 | 28 | 1011.4 |
| 20260506001034 | 72 | 250 | 10.0 | 20.0 | 0.00 | 0.25 | 0.23 | 27 | 1011.4 |
| 20260506000534 | 72 | 215 | 11.0 | 23.0 | 0.00 | 0.25 | 0.23 | 28 | 1011.3 |
| 20260506000111 | 72 | 236 | 13.0 | 23.0 | 0.00 | 0.25 | 0.23 | 27 | 1011.2 |
| 20260505235532 | 72 | 248 | 11.0 | 23.0 | 0.00 | 0.25 | 0.23 | 27 | 1011.1 |
| 20260505235033 | 73 | 242 | 10.0 | 25.0 | 0.00 | 0.25 | 0.23 | 27 | 1011.0 |
| 20260505234545 | 73 | 225 | 12.0 | 25.0 | 0.00 | 0.25 | 0.23 | 25 | 1011.1 |
| 20260505234035 | 73 | 242 | 13.0 | 25.0 | 0.00 | 0.25 | 0.23 | 23 | 1011.1 |
| 20260505233534 | 73 | 256 | 13.0 | 25.0 | 0.00 | 0.25 | 0.23 | 24 | 1011.1 |
| 20260505233044 | 73 | 220 | 13.0 | 26.0 | 0.00 | 0.25 | 0.23 | 24 | 1011.0 |
| 20260505232533 | 73 | 260 | 12.0 | 28.0 | 0.00 | 0.25 | 0.23 | 23 | 1011.0 |
| 20260505232032 | 73 | 243 | 14.0 | 28.0 | 0.00 | 0.25 | 0.23 | 24 | 1011.0 |
| 20260505231541 | 73 | 234 | 11.0 | 22.0 | 0.00 | 0.25 | 0.23 | 23 | 1010.9 |
| 20260505231032 | 74 | 213 | 11.0 | 22.0 | 0.00 | 0.25 | 0.23 | 24 | 1010.9 |
| 20260505230531 | 74 | 159 | 11.0 | 22.0 | 0.00 | 0.25 | 0.23 | 25 | 1010.8 |
| 20260505230058 | 73 | 246 | 13.0 | 24.0 | 0.00 | 0.25 | 0.23 | 26 | 1010.9 |
| 20260505225534 | 74 | 205 | 12.0 | 24.0 | 0.00 | 0.25 | 0.23 | 26 | 1010.9 |
| 20260505225037 | 74 | 159 | 13.0 | 23.0 | 0.00 | 0.25 | 0.23 | 26 | 1010.9 |
| 20260505224542 | 74 | 229 | 12.0 | 24.0 | 0.00 | 0.25 | 0.23 | 28 | 1010.8 |
| 20260505224033 | 74 | 229 | 10.0 | 24.0 | 0.00 | 0.25 | 0.23 | 29 | 1011.0 |
| 20260505223534 | 74 | 250 | 9.0 | 25.0 | 0.00 | 0.25 | 0.23 | 29 | 1010.9 |
| 20260505223048 | 74 | 202 | 13.0 | 25.0 | 0.00 | 0.25 | 0.23 | 30 | 1011.0 |
| 20260505222535 | 74 | 221 | 12.0 | 25.0 | 0.00 | 0.25 | 0.23 | 30 | 1011.2 |
| 20260505222033 | 74 | 154 | 11.0 | 20.0 | 0.00 | 0.25 | 0.23 | 31 | 1011.2 |
| 20260505221554 | 75 | 242 | 9.0 | 24.0 | 0.00 | 0.25 | 0.23 | 32 | 1011.2 |
| 20260505221036 | 75 | 202 | 11.0 | 24.0 | 0.00 | 0.25 | 0.23 | 32 | 1011.2 |
| 20260505220532 | 75 | 235 | 10.0 | 20.0 | 0.00 | 0.25 | 0.23 | 30 | 1011.1 |
| 20260505220045 | 75 | 222 | 6.0 | 18.0 | 0.00 | 0.25 | 0.23 | 33 | 1011.2 |
| 20260505215532 | 74 | 185 | 7.0 | 22.0 | 0.00 | 0.25 | 0.23 | 30 | 1011.3 |
| 20260505215032 | 75 | 216 | 10.0 | 22.0 | 0.00 | 0.25 | 0.23 | 30 | 1011.3 |
| 20260505214543 | 75 | 212 | 7.0 | 19.0 | 0.00 | 0.25 | 0.23 | 33 | 1011.3 |
| 20260505214032 | 74 | 196 | 5.0 | 19.0 | 0.00 | 0.25 | 0.23 | 33 | 1011.5 |
| 20260505213533 | 73 | 165 | 9.0 | 19.0 | 0.00 | 0.25 | 0.23 | 33 | 1011.5 |
| 20260505213040 | 73 | 198 | 8.0 | 23.0 | 0.00 | 0.25 | 0.23 | 34 | 1011.6 |
| 20260505212531 | 74 | 226 | 13.0 | 23.0 | 0.00 | 0.25 | 0.23 | 31 | 1011.6 |
| 20260505212032 | 75 | 197 | 11.0 | 22.0 | 0.00 | 0.25 | 0.23 | 33 | 1011.6 |
| 20260505211542 | 75 | 186 | 10.0 | 20.0 | 0.00 | 0.25 | 0.23 | 34 | 1011.7 |
| 20260505211034 | 75 | 186 | 9.0 | 19.0 | 0.00 | 0.25 | 0.23 | 34 | 1011.6 |
| 20260505210535 | 75 | 186 | 10.0 | 22.0 | 0.00 | 0.25 | 0.23 | 33 | 1011.7 |
| 20260505210042 | 74 | 229 | 10.0 | 22.0 | 0.00 | 0.25 | 0.23 | 34 | 1011.8 |
| 20260505205533 | 74 | 232 | 11.0 | 22.0 | 0.00 | 0.25 | 0.23 | 34 | 1011.8 |
| 20260505205033 | 74 | 215 | 14.0 | 22.0 | 0.00 | 0.25 | 0.23 | 34 | 1012.0 |
| 20260505204552 | 74 | 165 | 11.0 | 22.0 | 0.00 | 0.25 | 0.23 | 34 | 1011.8 |
| 20260505204032 | 75 | 193 | 10.0 | 23.0 | 0.00 | 0.25 | 0.23 | 34 | 1012.0 |
| 20260505203535 | 75 | 215 | 13.0 | 23.0 | 0.00 | 0.25 | 0.23 | 33 | 1011.9 |
| 20260505203053 | 75 | 179 | 10.0 | 23.0 | 0.00 | 0.25 | 0.23 | 33 | 1012.0 |
| 20260505202533 | 74 | 188 | 13.0 | 27.0 | 0.00 | 0.25 | 0.23 | 35 | 1011.9 |
| 20260505202033 | 74 | 191 | 14.0 | 27.0 | 0.00 | 0.25 | 0.23 | 36 | 1011.9 |
| 20260505201543 | 74 | 218 | 11.0 | 28.0 | 0.00 | 0.25 | 0.23 | 35 | 1011.9 |
| 20260505201033 | 74 | 205 | 12.0 | 28.0 | 0.00 | 0.25 | 0.23 | 36 | 1012.0 |
| 20260505200534 | 74 | 220 | 12.0 | 25.0 | 0.00 | 0.25 | 0.23 | 36 | 1011.9 |
| 20260505200038 | 74 | 210 | 11.0 | 25.0 | 0.00 | 0.25 | 0.23 | 37 | 1011.9 |
| 20260505195533 | 74 | 211 | 9.0 | 30.0 | 0.00 | 0.25 | 0.23 | 39 | 1012.1 |
| 20260505195034 | 73 | 223 | 11.0 | 30.0 | 0.00 | 0.25 | 0.23 | 40 | 1012.1 |
| 20260505194603 | 73 | 200 | 13.0 | 28.0 | 0.00 | 0.25 | 0.23 | 39 | 1012.2 |
| 20260505194033 | 73 | 145 | 14.0 | 27.0 | 0.00 | 0.25 | 0.23 | 38 | 1012.0 |
| 20260505193535 | 73 | 198 | 12.0 | 26.0 | 0.00 | 0.25 | 0.23 | 39 | 1012.2 |
| 20260505193045 | 73 | 199 | 13.0 | 26.0 | 0.00 | 0.25 | 0.23 | 40 | 1012.1 |
| 20260505192532 | 73 | 160 | 12.0 | 26.0 | 0.00 | 0.25 | 0.23 | 40 | 1012.2 |
| 20260505192034 | 73 | 193 | 12.0 | 25.0 | 0.00 | 0.25 | 0.23 | 40 | 1012.0 |
| 20260505191554 | 73 | 199 | 13.0 | 24.0 | 0.00 | 0.25 | 0.23 | 40 | 1012.2 |
| 20260505191033 | 73 | 223 | 12.0 | 28.0 | 0.00 | 0.25 | 0.23 | 40 | 1012.3 |
| 20260505190536 | 73 | 196 | 13.0 | 28.0 | 0.00 | 0.25 | 0.23 | 40 | 1012.3 |
| 20260505190040 | 73 | 190 | 8.0 | 27.0 | 0.00 | 0.25 | 0.23 | 41 | 1012.5 |
| 20260505185532 | 73 | 215 | 9.0 | 23.0 | 0.00 | 0.25 | 0.23 | 41 | 1012.7 |
| 20260505185033 | 73 | 212 | 13.0 | 23.0 | 0.00 | 0.25 | 0.23 | 39 | 1012.7 |
| 20260505184538 | 73 | 242 | 8.0 | 22.0 | 0.00 | 0.25 | 0.23 | 39 | 1012.5 |
| 20260505184033 | 72 | 167 | 10.0 | 22.0 | 0.00 | 0.25 | 0.23 | 40 | 1012.6 |
| 20260505183532 | 72 | 229 | 9.0 | 25.0 | 0.00 | 0.25 | 0.23 | 41 | 1012.7 |
| 20260505183040 | 72 | 196 | 11.0 | 25.0 | 0.00 | 0.25 | 0.23 | 43 | 1012.7 |
| 20260505182533 | 72 | 188 | 9.0 | 20.0 | 0.00 | 0.25 | 0.23 | 43 | 1012.7 |
| 20260505182033 | 72 | 214 | 10.0 | 24.0 | 0.00 | 0.25 | 0.23 | 43 | 1012.7 |
| 20260505181545 | 71 | 216 | 10.0 | 24.0 | 0.00 | 0.25 | 0.23 | 43 | 1012.8 |
| 20260505181032 | 71 | 240 | 11.0 | 25.0 | 0.00 | 0.25 | 0.23 | 43 | 1012.8 |
| 20260505180533 | 72 | 210 | 13.0 | 25.0 | 0.00 | 0.25 | 0.23 | 44 | 1012.9 |
| 20260505180045 | 72 | 215 | 10.0 | 19.0 | 0.00 | 0.25 | 0.23 | 45 | 1012.7 |
| 20260505175534 | 72 | 205 | 7.0 | 18.0 | 0.00 | 0.25 | 0.23 | 47 | 1013.0 |
| 20260505175031 | 71 | 212 | 9.0 | 18.0 | 0.00 | 0.25 | 0.23 | 45 | 1012.9 |
| 20260505174541 | 71 | 263 | 6.0 | 16.0 | 0.00 | 0.25 | 0.23 | 47 | 1012.9 |
| 20260505174034 | 71 | 222 | 8.0 | 16.0 | 0.00 | 0.25 | 0.23 | 47 | 1012.9 |
| 20260505173534 | 70 | 202 | 5.0 | 17.0 | 0.00 | 0.25 | 0.23 | 47 | 1012.9 |
| 20260505173038 | 70 | 233 | 7.0 | 17.0 | 0.00 | 0.25 | 0.23 | 48 | 1013.0 |
| 20260505172533 | 70 | 246 | 8.0 | 19.0 | 0.00 | 0.25 | 0.23 | 49 | 1012.9 |
| 20260505172033 | 69 | 238 | 7.0 | 19.0 | 0.00 | 0.25 | 0.23 | 49 | 1012.9 |
| 20260505171538 | 68 | 208 | 7.0 | 15.0 | 0.00 | 0.25 | 0.23 | 50 | 1013.0 |
| 20260505171033 | 68 | 205 | 5.0 | 11.0 | 0.00 | 0.25 | 0.23 | 50 | 1012.9 |
| 20260505170533 | 68 | 205 | 5.0 | 10.0 | 0.00 | 0.25 | 0.23 | 52 | 1013.0 |
| 20260505170046 | 68 | 184 | 2.0 | 10.0 | 0.00 | 0.25 | 0.23 | 55 | 1013.0 |
| 20260505165534 | 68 | 184 | 2.0 | 9.0 | 0.00 | 0.25 | 0.23 | 54 | 1013.1 |
| 20260505165032 | 68 | 0 | 2.0 | 9.0 | 0.00 | 0.25 | 0.23 | 55 | 1013.1 |
| 20260505164537 | 68 | 205 | 3.0 | 10.0 | 0.00 | 0.25 | 0.23 | 57 | 1013.1 |
| 20260505164035 | 67 | 0 | 4.0 | 10.0 | 0.00 | 0.25 | 0.23 | 58 | 1013.1 |
| 20260505163534 | 67 | 0 | 2.0 | 9.0 | 0.00 | 0.25 | 0.23 | 58 | 1013.2 |
| 20260505163042 | 67 | 0 | 0.0 | 8.0 | 0.00 | 0.25 | 0.23 | 59 | 1013.2 |
| 20260505162532 | 67 | 0 | 0.0 | 8.0 | 0.00 | 0.25 | 0.23 | 60 | 1013.3 |
| 20260505162032 | 66 | 215 | 1.0 | 9.0 | 0.00 | 0.25 | 0.23 | 62 | 1013.3 |
| 20260505161541 | 65 | 254 | 4.0 | 9.0 | 0.00 | 0.25 | 0.23 | 62 | 1013.3 |
| 20260505161033 | 65 | 242 | 0.0 | 8.0 | 0.00 | 0.25 | 0.23 | 61 | 1013.3 |
| 20260505160536 | 65 | 245 | 3.0 | 8.0 | 0.00 | 0.25 | 0.23 | 61 | 1013.2 |
| 20260505153034 | 61 | 0 | 0.0 | 0.0 | 0.00 | 0.25 | 0.23 | 74 | 1013.4 |
| 20260505152531 | 61 | 0 | 0.0 | 0.0 | 0.00 | 0.25 | 0.23 | 76 | 1013.5 |
| 20260505152033 | 60 | 0 | 0.0 | 0.0 | 0.00 | 0.25 | 0.23 | 75 | 1013.3 |
| 20260505151545 | 60 | 0 | 0.0 | 0.0 | 0.00 | 0.25 | 0.23 | 77 | 1013.4 |
| 20260505151033 | 59 | 0 | 0.0 | 0.0 | 0.00 | 0.25 | 0.23 | 80 | 1013.2 |
| 20260505150533 | 59 | 0 | 0.0 | 0.0 | 0.00 | 0.25 | 0.23 | 82 | 1013.3 |
| 20260505150104 | 59 | 0 | 0.0 | 0.0 | 0.00 | 0.25 | 0.23 | 83 | 1013.3 |
| 20260505140534 | 57 | 0 | 0.0 | 0.0 | 0.00 | 0.25 | 0.23 | 84 | 1012.8 |
| 20260505125032 | 56 | 0 | 0.0 | 0.0 | 0.01 | 0.25 | 0.23 | 86 | 1012.1 |
| 20260505124547 | 56 | 0 | 0.0 | 0.0 | 0.01 | 0.25 | 0.23 | 86 | 1012.1 |
| 20260505124032 | 56 | 0 | 0.0 | 0.0 | 0.01 | 0.25 | 0.23 | 86 | 1011.9 |
| 20260505123533 | 56 | 0 | 0.0 | 0.0 | 0.01 | 0.25 | 0.23 | 86 | 1011.9 |
| 20260505123049 | 56 | 0 | 0.0 | 0.0 | 0.01 | 0.25 | 0.23 | 86 | 1011.8 |
| 20260505122532 | 56 | 0 | 0.0 | 0.0 | 0.01 | 0.25 | 0.23 | 86 | 1011.8 |
| 20260505122034 | 56 | 0 | 0.0 | 0.0 | 0.01 | 0.25 | 0.23 | 86 | 1011.9 |
| 20260505121613 | 56 | 0 | 0.0 | 0.0 | 0.01 | 0.25 | 0.23 | 86 | 1011.7 |
| 20260505121034 | 56 | 0 | 0.0 | 0.0 | 0.01 | 0.25 | 0.23 | 86 | 1011.8 |
| 20260505120533 | 56 | 0 | 0.0 | 0.0 | 0.01 | 0.25 | 0.23 | 86 | 1011.7 |
| 20260505120038 | 56 | 0 | 0.0 | 0.0 | 0.00 | 0.24 | 0.22 | 87 | 1011.8 |
| 20260505115530 | 56 | 0 | 0.0 | 0.0 | 0.00 | 0.24 | 0.22 | 87 | 1012.0 |
| 20260505115032 | 56 | 0 | 0.0 | 0.0 | 0.00 | 0.24 | 0.22 | 87 | 1011.9 |
| 20260505114538 | 56 | 0 | 0.0 | 0.0 | 0.00 | 0.24 | 0.22 | 87 | 1011.6 |
| 20260505114034 | 56 | 0 | 0.0 | 0.0 | 0.01 | 0.24 | 0.22 | 87 | 1011.7 |
| 20260505113533 | 56 | 0 | 0.0 | 0.0 | 0.01 | 0.24 | 0.22 | 87 | 1011.7 |
| 20260505113048 | 56 | 0 | 0.0 | 0.0 | 0.01 | 0.24 | 0.22 | 87 | 1011.7 |
| 20260505112532 | 56 | 0 | 0.0 | 0.0 | 0.01 | 0.24 | 0.22 | 87 | 1011.7 |
| 20260505112030 | 56 | 0 | 0.0 | 0.0 | 0.01 | 0.24 | 0.22 | 86 | 1011.7 |
| 20260505111540 | 56 | 0 | 0.0 | 0.0 | 0.01 | 0.24 | 0.22 | 86 | 1011.5 |
| 20260505111032 | 56 | 0 | 0.0 | 0.0 | 0.01 | 0.24 | 0.22 | 87 | 1011.7 |
| 20260505110531 | 56 | 0 | 0.0 | 0.0 | 0.01 | 0.24 | 0.22 | 86 | 1011.9 |
| 20260505102032 | 57 | 0 | 0.0 | 0.0 | 0.02 | 0.23 | 0.21 | 87 | 1012.1 |
| 20260505101542 | 57 | 0 | 0.0 | 0.0 | 0.02 | 0.23 | 0.21 | 87 | 1012.2 |
| 20260505101032 | 57 | 0 | 0.0 | 0.0 | 0.03 | 0.23 | 0.21 | 86 | 1012.4 |
| 20260505100532 | 57 | 0 | 0.0 | 0.0 | 0.03 | 0.23 | 0.21 | 86 | 1012.4 |
| 20260505100043 | 57 | 0 | 0.0 | 2.0 | 0.03 | 0.23 | 0.21 | 86 | 1012.5 |
| 20260505095534 | 57 | 0 | 0.0 | 4.0 | 0.03 | 0.23 | 0.21 | 85 | 1012.8 |
| 20260505095034 | 57 | 0 | 0.0 | 6.0 | 0.04 | 0.23 | 0.21 | 85 | 1012.8 |
| 20260505094544 | 57 | 360 | 2.0 | 6.0 | 0.04 | 0.23 | 0.21 | 85 | 1012.9 |
| 20260505094033 | 56 | 360 | 3.0 | 6.0 | 0.04 | 0.22 | 0.20 | 85 | 1013.2 |
| 20260505093533 | 56 | 0 | 0.0 | 6.0 | 0.04 | 0.22 | 0.20 | 85 | 1013.2 |
| 20260505093043 | 57 | 360 | 1.0 | 6.0 | 0.04 | 0.22 | 0.20 | 85 | 1013.4 |
| 20260505092534 | 56 | 360 | 3.0 | 10.0 | 0.05 | 0.22 | 0.20 | 86 | 1013.6 |
| 20260505092033 | 57 | 0 | 4.0 | 10.0 | 0.04 | 0.21 | 0.19 | 86 | 1013.7 |
| 20260505091559 | 57 | 360 | 4.0 | 9.0 | 0.05 | 0.21 | 0.19 | 87 | 1013.7 |
| 20260505091032 | 57 | 0 | 0.0 | 1.0 | 0.04 | 0.20 | 0.18 | 87 | 1013.7 |
| 20260505090532 | 57 | 0 | 0.0 | 8.0 | 0.05 | 0.20 | 0.18 | 87 | 1014.3 |
| 20260505090055 | 57 | 0 | 1.0 | 8.0 | 0.06 | 0.20 | 0.18 | 87 | 1014.5 |
| 20260505085532 | 57 | 360 | 4.0 | 9.0 | 0.06 | 0.20 | 0.18 | 87 | 1014.5 |
| 20260505085034 | 57 | 360 | 4.0 | 9.0 | 0.06 | 0.19 | 0.17 | 88 | 1014.4 |
| 20260505084546 | 57 | 360 | 3.0 | 9.0 | 0.07 | 0.19 | 0.17 | 88 | 1014.6 |
| 20260505084032 | 57 | 360 | 3.0 | 6.0 | 0.06 | 0.18 | 0.16 | 88 | 1015.0 |
| 20260505083533 | 57 | 360 | 4.0 | 6.0 | 0.07 | 0.18 | 0.16 | 87 | 1015.1 |
| 20260505083048 | 57 | 360 | 1.0 | 6.0 | 0.09 | 0.18 | 0.16 | 87 | 1015.2 |
| 20260505082535 | 57 | 0 | 0.0 | 0.0 | 0.09 | 0.17 | 0.15 | 87 | 1015.4 |
| 20260505082033 | 57 | 0 | 0.0 | 0.0 | 0.11 | 0.17 | 0.15 | 87 | 1015.5 |
| 20260505081545 | 57 | 0 | 0.0 | 0.0 | 0.12 | 0.16 | 0.14 | 87 | 1015.7 |
| 20260505081035 | 57 | 0 | 0.0 | 0.0 | 0.13 | 0.16 | 0.14 | 86 | 1015.7 |
| 20260505080536 | 57 | 0 | 0.0 | 4.0 | 0.12 | 0.15 | 0.13 | 86 | 1015.7 |
| 20260505080052 | 57 | 0 | 0.0 | 5.0 | 0.12 | 0.14 | 0.12 | 86 | 1015.7 |
| 20260505075533 | 57 | 0 | 0.0 | 6.0 | 0.12 | 0.14 | 0.12 | 85 | 1015.9 |
| 20260505075034 | 57 | 0 | 1.0 | 6.0 | 0.12 | 0.13 | 0.11 | 85 | 1016.0 |
| 20260505074542 | 58 | 360 | 2.0 | 6.0 | 0.12 | 0.12 | 0.10 | 85 | 1016.0 |
| 20260505074035 | 58 | 360 | 2.0 | 10.0 | 0.11 | 0.11 | 0.09 | 84 | 1016.1 |
| 20260505073531 | 58 | 360 | 4.0 | 10.0 | 0.10 | 0.10 | 0.08 | 83 | 1016.2 |
| 20260505073047 | 58 | 0 | 0.0 | 5.0 | 0.09 | 0.09 | 0.07 | 83 | 1016.1 |
| 20260505072532 | 58 | 0 | 0.0 | 5.0 | 0.08 | 0.08 | 0.06 | 82 | 1015.9 |
| 20260505072033 | 59 | 0 | 0.0 | 5.0 | 0.05 | 0.05 | 0.03 | 81 | 1015.9 |
| 20260505071546 | 59 | 0 | 0.0 | 0.0 | 0.04 | 0.04 | 0.02 | 81 | 1015.9 |
| 20260505071035 | 59 | 0 | 0.0 | 6.0 | 0.03 | 0.03 | 0.01 | 80 | 1016.1 |
| 20260505070533 | 59 | 0 | 0.0 | 9.0 | 0.03 | 0.03 | 0.01 | 79 | 1016.1 |
| 20260505070040 | 59 | 360 | 1.0 | 9.0 | 0.02 | 0.02 | 0.00 | 78 | 1016.1 |
| 20260505065531 | 60 | 360 | 3.0 | 9.0 | 0.02 | 0.02 | 0.02 | 77 | 1015.9 |
| 20260505065033 | 60 | 0 | 1.0 | 6.0 | 0.01 | 0.01 | 0.01 | 76 | 1015.9 |
| 20260505064539 | 60 | 0 | 0.0 | 4.0 | 0.00 | 0.00 | 0.00 | 77 | 1015.9 |
| 20260505064034 | 60 | 0 | 0.0 | 4.0 | 0.00 | 0.00 | 0.00 | 77 | 1016.1 |
| 20260505063531 | 60 | 0 | 0.0 | 0.0 | 0.00 | 0.00 | 0.00 | 77 | 1016.2 |
| 20260505063046 | 60 | 0 | 0.0 | 3.0 | 0.00 | 0.00 | 0.00 | 77 | 1015.9 |
| 20260505062532 | 60 | 0 | 0.0 | 3.0 | 0.00 | 0.00 | 0.00 | 76 | 1015.9 |
| 20260505062035 | 60 | 0 | 0.0 | 4.0 | 0.00 | 0.00 | 0.00 | 76 | 1015.7 |
| 20260505061540 | 60 | 0 | 0.0 | 5.0 | 0.00 | 0.00 | 0.00 | 75 | 1015.9 |
| 20260505061032 | 61 | 360 | 0.0 | 6.0 | 0.00 | 0.00 | 0.00 | 74 | 1015.8 |
| 20260505060536 | 61 | 360 | 1.0 | 11.0 | 0.00 | 0.00 | 0.00 | 73 | 1015.7 |
| 20260505060038 | 61 | 360 | 2.0 | 14.0 | 0.00 | 0.00 | 0.00 | 72 | 1015.9 |
| 20260505055533 | 62 | 360 | 7.0 | 14.0 | 0.00 | 0.00 | 0.00 | 69 | 1015.8 |
| 20260505055034 | 62 | 360 | 8.0 | 15.0 | 0.00 | 0.00 | 0.00 | 67 | 1015.9 |
| 20260505054614 | 63 | 360 | 7.0 | 15.0 | 0.00 | 0.00 | 0.00 | 65 | 1016.0 |
| 20260505054031 | 63 | 360 | 2.0 | 15.0 | 0.00 | 0.00 | 0.00 | 63 | 1016.0 |
| 20260505053531 | 64 | 360 | 6.0 | 15.0 | 0.00 | 0.00 | 0.00 | 60 | 1015.8 |
| 20260505053047 | 64 | 208 | 6.0 | 15.0 | 0.00 | 0.00 | 0.00 | 60 | 1015.8 |
| 20260505052533 | 64 | 360 | 3.0 | 9.0 | 0.00 | 0.00 | 0.00 | 59 | 1015.8 |
| 20260505052035 | 64 | 360 | 0.0 | 9.0 | 0.00 | 0.00 | 0.00 | 60 | 1015.8 |
| 20260505051544 | 64 | 170 | 3.0 | 9.0 | 0.00 | 0.00 | 0.00 | 60 | 1015.7 |
| 20260505051033 | 64 | 360 | 4.0 | 9.0 | 0.00 | 0.00 | 0.00 | 60 | 1015.9 |
| 20260505050532 | 64 | 360 | 1.0 | 6.0 | 0.00 | 0.00 | 0.00 | 60 | 1016.0 |